Regional Weather Roundup
Issued by NWS

Home | Current Version | Previous Version | Text Only | Print | Product List | Glossary On
Versions: 1 2 3 4 5 6 7 8 9 10 11 12 13 14 15 16 17 18 19 20 21 22 23 24 25 26 27 28 29 30 31 32 33 34 35 36 37 38 39 40 41 42 43 44 45 46 47 48 49 50
000
ASUS43 KLMK 200110
RWRKY
KENTUCKY REGIONAL WEATHER ROUNDUP
NATIONAL WEATHER SERVICE LOUISVILLE KY
800 PM EST FRI JAN 19 2018

NOTE "FAIR" INDICATES FEW OR NO CLOUDS BELOW 12,000 FEET
WITH NO SIGNIFICANT WEATHER AND/OR OBSTRUCTIONS TO VISIBILITY.

KYZ001>023-026-027-061>063-070>075-200200-
WESTERN AND SOUTH CENTRAL KENTUCKY

CITY           SKY/WX    TMP DP  RH WIND       PRES   REMARKS
PADUCAH        FAIR      39  19  44 SW9       30.09F WCI  33
HENDERSON      FAIR      38  21  50 S14       30.07S WCI  30
OWENSBORO      FAIR      35  22  58 S10       30.09F WCI  27
HOPKINSVILLE   MOCLDY    42  22  44 S10       30.12F
BOWLING GREEN  FAIR      40  24  53 S10       30.14F WCI  33
GLASGOW        FAIR      37  19  48 S6        30.14F WCI  33
$$

KYZ024-025-028>034-038-045-046-053-200200-
NORTH CENTRAL KENTUCKY

CITY           SKY/WX    TMP DP  RH WIND       PRES   REMARKS
LOUISVILLE/SDF MOCLDY    39  21  48 S8        30.10S WCI  33
LOUISVILLE/LOU FAIR      37  22  54 S7        30.11S WCI  32
FORT KNOX      PTCLDY    36  21  55 S10       30.11S WCI  28
$$

KYZ035>037-039>044-047>052-055>060-089>105-200200-
NORTHEAST KENTUCKY

CITY           SKY/WX    TMP DP  RH WIND       PRES   REMARKS
LEXINGTON      FAIR      35  18  49 S9        30.11R WCI  28
COVINGTON      MOCLDY    36  21  54 SW13      30.04S WCI  27
FRANKFORT      FAIR      35  17  47 S8        30.10R WCI  29
$$

KYZ054-064>069-076>088-106>120-200200-
SOUTHEAST KENTUCKY

CITY           SKY/WX    TMP DP  RH WIND       PRES   REMARKS
JACKSON        FAIR      37  11  34 SW5       30.12S WCI  33
LONDON         FAIR      36  14  40 S6        30.15R WCI  31
SOMERSET       FAIR      34  14  44 CALM      30.17F
MIDDLESBORO    FAIR      26  20  79 CALM      30.20S
MONTICELLO     FAIR      26  21  81 NW8       30.18S WCI  18
$$





USA.gov is the U.S. government's official web portal to all federal, state and local government web resources and services.